Regional Weather Roundup
Issued by NWS Northern Indiana

Home | Current Version | Previous Version | Text Only | Print | Product List | Glossary On
Versions: 1 2 3 4 5 6 7 8 9 10 11 12 13 14 15 16 17 18 19 20 21 22 23 24 25 26 27 28 29 30 31 32 33 34 35 36 37 38 39 40 41 42 43 44 45 46 47 48 49 50
000
ASUS43 KIWX 200210
RWRIWX

KIWX WEATHER ROUNDUP
NATIONAL WEATHER SERVICE NORTHERN INDIANA
900 PM EST THU JAN 19 2017

NOTE: "FAIR" INDICATES FEW OR NO CLOUDS BELOW 12,000 FEET WITH NO
SIGNIFICANT WEATHER AND/OR OBSTRUCTIONS TO VISIBILITY.

* THESE STATIONS ARE NOT UNDER NWS QUALITY CONTROL. THEY ALSO MAY NOT
  REPORT WEATHER SUCH AS PRECIPITATION OR FOG.

INZ001>027-200300-
NORTHERN INDIANA

CITY           SKY/WX    TMP DP  RH WIND       PRES   REMARKS
GARY*          LGT RAIN  39  37  93 SE7       29.82F
VALPARAISO     LGT RAIN  39  38  96 E12       29.81F FOG
LAPORTE*       RAIN      37  36  96 E10       29.82F
KNOX*          CLOUDY    37  28  70 E10       29.82F
SOUTH BEND     CLOUDY    37  35  92 E8        29.86F
ELKHART*       MOCLDY    37  34  87 E5        29.86F FOG
GOSHEN         CLOUDY    38  34  85 SE6       29.86F
ROCHESTER*     RAIN      41  39  93 E9        29.83F
WARSAW*        LGT RAIN  37  32  81 E6        29.85F
FORT WAYNE     CLOUDY    40  36  86 E8        29.87F
PERU/GRISSOM   LGT RAIN  39  39 100 E10       29.80F FOG
MARION*        LGT RAIN  39  39 100 E7        29.83F

$$
INZ028>050-200300-
CENTRAL INDIANA

CITY           SKY/WX    TMP DP  RH WIND       PRES   REMARKS
LAFAYETTE      LGT RAIN  41  41 100 E15       29.76F FOG
KOKOMO*        LGT RAIN  40  39  97 E13       29.81F FOG
MUNCIE*        LGT RAIN  44  40  85 E6        29.83F
INDIANAPOLIS   LGT RAIN  44  42  93 E10       29.77F FOG

$$
MIZ043>046-050>051-056>058-064>065-071>073-077>080-200300-
SOUTHWEST LOWER MICHIGAN

CITY           SKY/WX    TMP DP  RH WIND       PRES   REMARKS
BATTLE CREEK   CLOUDY    37  34  89 SE8       29.88S
BENTON HARBOR  CLOUDY    40  35  83 SE8       29.85F
COLDWATER*     CLOUDY    36  36  99 SE5       29.88R FOG
HILLSDALE*     CLOUDY    34  34 100 SE7       29.86F FOG     WCI  28
HOLLAND        CLOUDY    37  34  89 E7        29.85F
GRAND RAPIDS   CLOUDY    36  32  85 E7        29.86F
KALAMAZOO      CLOUDY    38  32  79 SE6       29.88R HAZE
STURGIS*       CLOUDY    36  34  94 SE3       29.87S FOG
THREE RIVERS*  CLOUDY    36  34  92 SE5       29.89R FOG

$$
OHZ001>008-015>018-024>025-200300-
NORTHWEST OHIO

CITY           SKY/WX    TMP DP  RH WIND       PRES   REMARKS
DEFIANCE       MOCLDY    36  34  92 E6        29.89F
FINDLAY        PTCLDY    40  35  83 SE8       29.89F
TOLEDO EXPRESS PTCLDY    35  35 100 E3        29.91F
TOLEDO METCALF CLOUDY    36  35  96 E6        29.93F
LIMA           CLOUDY    39  37  92 E9        29.87F

$$
AND FOR LAKE MICHIGAN COASTAL AND OPEN LAKE BUOY OBSERVATIONS

STATION/POSITION TEMP    WIND        PRES    VSBY  WAVE
                 AIR SEA DIR/SP/G                  HT/PER
                 (F)     (DEG/KT/KT) (MB)    (MI)  (FT/S)
CALUMET HARBOR    35      80/  5/  6 1009.3F
MICHIGAN CITY     39      90/  8/ 10   N/A
BURNS HARBOR      39     100/  6/ 12 1010.5F

$$
&&




USA.gov is the U.S. government's official web portal to all federal, state and local government web resources and services.